This is the latest recevied weather packets stored in our database for station/object F4ETJ-1. If no packets are shown the sender has not sent any weather packets the latest 10 day(s).
| Time | Temp. | Humidity | Pressure | Rain* | Wind** | Luminosity | Snow |
|---|---|---|---|---|---|---|---|
| 1787889166 | 15.56° C | 90% | 1010.2 hPa | 0.76 mm | - | - | - |
| 1787888806 | 15.56° C | 90% | 1010.1 hPa | 1.02 mm | - | - | - |
| 1787888445 | 15.56° C | 89% | 1010.2 hPa | 1.02 mm | - | - | - |
| 1787888085 | 15.56° C | 90% | 1010.3 hPa | 0.51 mm | - | - | - |
| 1787887724 | 15.56° C | 92% | 1010.6 hPa | 0.25 mm | - | - | - |
| 1787887364 | 15.56° C | 92% | 1010.3 hPa | 0.25 mm | - | - | - |
| 1787887004 | 15.56° C | 92% | 1010.2 hPa | 0.25 mm | - | - | - |
| 1787886643 | 15.56° C | 92% | 1010.1 hPa | 0.25 mm | - | - | - |
| 1787886283 | 15.56° C | 92% | 1009.9 hPa | 1.02 mm | - | - | - |
| 1787885923 | 15.56° C | 92% | 1009.5 hPa | 3.3 mm | - | - | - |
| 1787885562 | 15.56° C | 92% | 1009.7 hPa | 5.33 mm | - | - | - |
| 1787885202 | 15.56° C | 92% | 1009.8 hPa | 7.37 mm | - | - | - |
| 1787884842 | 15.56° C | 91% | 1009.7 hPa | 9.14 mm | - | - | - |
| 1787884481 | 15.56° C | 91% | 1009.3 hPa | 9.14 mm | - | - | - |
| 1787884121 | 15.56° C | 91% | 1009.4 hPa | 9.14 mm | - | - | - |
| 1787883761 | 15.56° C | 91% | 1009.1 hPa | 9.4 mm | - | - | - |
| 1787883400 | 15.56° C | 91% | 1008.9 hPa | 9.65 mm | - | - | - |
| 1787883040 | 16.11° C | 91% | 1009 hPa | 9.65 mm | - | - | - |
| 1787882680 | 16.11° C | 90% | 1009.2 hPa | 8.89 mm | - | - | - |
| 1787882319 | 16.11° C | 90% | 1009.9 hPa | 6.6 mm | - | - | - |
| 1787881959 | 16.67° C | 89% | 1009.2 hPa | 4.57 mm | - | - | - |
| 1787881599 | 16.67° C | 89% | 1009.6 hPa | 2.29 mm | - | - | - |
| 1787881238 | 17.22° C | 89% | 1008.6 hPa | 0.51 mm | - | - | - |
| 1787880878 | 17.22° C | 88% | 1008.5 hPa | 0.51 mm | - | - | - |
| 1787880518 | 17.22° C | 88% | 1008.6 hPa | 0.51 mm | - | - | - |
* Rain latest hour (hover to see other rain measurements)
** Current wind speed in m/s (hover to see current wind gust speed)